Location: ??????????
(54.8537°N, 38.8755°E)
Time: 02:17:32
(UTC+00:00)

Transit 4A - Pass Details

Date: 15 September 2024
Orbit: 865 x 977 km, 66.8° (Epoch: 09 October)

Event Time Altitude Azimuth Distance (km) Brightness Sun altitude
Exits shadow 23:49:00 27° 152° (SSE) 1,654 9.0 -24.9°
Maximum altitude 23:51:06 34° 115° (ESE) 1,428 9.0 -24.7°
Drops below altitude 10° 23:56:27 10° 52° (NE) 2,606 11.3 -24.2°
Sets 23:59:12 0° 44° (NE) 3,571 12.4 -23.9°
